[[{"header":{"parameterUnit":"m.s-1","parameterCategory":1,"la1":30.2991,"la2":30.254,"lo1":-89.0895,"lo2":-89.0444,"dy":0.0017,"dx":0.0017,"nx":28,"ny":28,"refTime":"2025-11-28T03:00:00:Z","depth":0,"parameterNumber":2,"parameterNumberName":"U-component_of_WINDS"},"data":[0,0,0,0,0,0,0,0,0,0,0,0,0,0,0,0,0,0,0,0,0,0,0,0,0,0,0,0,0,0,0,0,0,0,0,0,0,0,0,0,0,0,0,0,0,0,0,0,0,0,0,0,0,0,0,0,0,0,-5.2231,-5.2232,0,-5.236,-5.2362,-5.2363,-5.2388,-5.2387,-5.2386,-5.2385,-5.2514,-5.2519,-5.2523,0,0,0,0,0,0,0,0,0,0,0,0,0,-5.2004,-5.2008,-5.2231,-5.2232,-5.2234,-5.236,-5.2362,-5.2363,-5.2389,-5.2387,-5.2386,-5.2385,-5.2513,-5.2518,-5.2523,0,0,0,0,0,0,0,0,0,0,0,0,0,-5.2114,-5.2009,-5.223,-5.2262,-5.2266,-5.236,-5.2362,-5.2364,-5.2389,-5.2387,-5.2386,-5.2384,-5.2511,-5.2518,-5.2524,-5.2595,0,0,-5.2544,-5.2547,0,0,0,0,0,0,0,0,-5.2108,-5.2123,-5.2256,-5.226,-5.2265,-5.2357,-5.2329,-5.2441,-5.2389,-5.2342,-5.2385,-5.2384,-5.2463,-5.2473,-5.2501,-5.2601,-5.2606,-5.2545,-5.2549,-5.2552,-5.2553,0,0,0,0,0,0,0,-5.21,-5.2117,-5.2282,-5.2257,-5.2263,-5.2269,-5.2283,-5.235,-5.2409,-5.2346,-5.2348,-5.2363,-5.2465,-5.2494,-5.2504,-5.2608,-5.2545,-5.255,-5.2554,-5.2557,-5.2773,-5.2775,0,0,0,0,0,0,-5.2088,-5.2111,-5.2278,-5.2286,-5.2181,-5.2274,-5.229,-5.2329,-5.2409,-5.2419,-5.2364,-5.2364,-5.2484,-5.2496,-5.2509,-5.2596,-5.2552,-5.2558,-5.2561,-5.2771,-5.2773,-5.2775,0,0,0,0,0,0,-5.2083,-5.2102,-5.2273,-5.2199,-5.2221,-5.228,-5.2323,-5.2332,-5.2361,-5.2423,-5.2433,-5.2384,-5.2483,-5.2499,-5.2573,-5.2601,-5.2561,-5.2567,-5.2769,-5.2772,-5.2774,-5.2771,0,0,0,0,0,0,-5.2076,-5.21,-5.2128,-5.2199,-5.2225,-5.2336,-5.2325,-5.2336,-5.2373,-5.2374,-5.2443,-5.2453,-5.2483,-5.2564,-5.258,-5.2609,-5.2572,-5.2767,-5.277,-5.2773,-5.2769,-5.2774,-5.2778,0,0,0,0,0,-5.2068,-5.2121,-5.2129,-5.2149,-5.2261,-5.2337,-5.2352,-5.2386,-5.2375,-5.2403,-5.2443,-5.2451,-5.2596,-5.2571,-5.259,-5.2621,-5.2765,-5.2769,-5.2773,-5.2767,-5.2773,-5.2777,0,0,0,0,0,0,-5.205,-5.2131,-5.2141,-5.2219,-5.2271,-5.2341,-5.2377,-5.239,-5.2446,-5.2444,-5.2483,-5.2499,-5.257,-5.2604,-5.2574,-5.2694,-5.268,-5.2688,-5.2669,-5.2675,-5.2679,-5.2668,-5.2577,0,0,0,0,0,-5.2055,-5.2111,-5.2179,-5.2242,-5.2267,-5.2318,-5.2352,-5.2375,-5.243,-5.2451,-5.2496,-5.2549,-5.2606,-5.2643,-5.2699,-5.2775,-5.279,-5.2807,-5.2811,-5.2814,-5.2819,-5.2862,-5.287,-5.2789,-5.2789,-5.2788,0,0,-5.2066,-5.2118,-5.215,-5.2239,-5.2282,-5.2338,-5.2336,-5.2396,-5.2437,-5.246,-5.2532,-5.2568,-5.2629,-5.2704,-5.274,-5.2734,-5.2846,-5.2819,-5.2821,-5.2825,-5.2867,-5.2875,-5.2881,-5.2791,-5.2791,-5.279,0,0,-5.2115,-5.216,-5.2217,-5.2261,-5.2326,-5.236,-5.2374,-5.2443,-5.2467,-5.2541,-5.256,-5.261,-5.2708,-5.2751,-5.2785,-5.2853,-5.2862,-5.287,-5.289,-5.2931,-5.2938,-5.2944,-5.2966,-5.2974,-5.2876,-5.2876,-5.2876,0,-5.212,-5.2206,-5.2244,-5.2304,-5.2342,-5.2367,-5.2425,-5.2465,-5.2545,-5.2571,-5.2564,-5.2688,-5.2731,-5.2817,-5.2833,-5.2861,-5.2877,-5.2861,-5.2934,-5.294,-5.2946,-5.2968,-5.2977,-5.2876,-5.2876,-5.2876,-5.2876,0,-5.2209,-5.2268,-5.2306,-5.2384,-5.2428,-5.2485,-5.2532,-5.2571,-5.259,-5.2624,-5.27,-5.2753,-5.282,-5.2843,-5.2861,-5.2931,-5.2926,-5.2926,-5.2912,-5.2954,-5.2975,-5.2984,-5.2877,-5.2877,-5.2877,-5.2876,0,0,-5.2246,-5.2347,-5.236,-5.2396,-5.2471,-5.2518,-5.2577,-5.2645,-5.2677,-5.2732,-5.2782,-5.2866,-5.2867,-5.2906,-5.2931,-5.2967,-5.3016,-5.2963,-5.2965,-5.297,-5.3095,-5.3093,-5.3102,-5.3024,-5.3026,-5.3028,-5.309,0,-5.2303,-5.241,-5.2447,-5.2536,-5.2591,-5.2617,-5.2669,-5.272,-5.2755,-5.2806,-5.2844,-5.2902,-5.29,-5.2924,-5.2962,-5.3002,-5.3041,-5.2998,-5.307,-5.3072,-5.3051,-5.3114,-5.3111,-5.3167,-5.3098,-5.31,-5.3101,0,-5.2382,-5.244,-5.2534,-5.2603,-5.2628,-5.2674,-5.2738,-5.2788,-5.2847,-5.287,-5.2915,-5.2937,-5.2999,-5.2984,-5.3071,-5.3041,-5.3073,-5.3097,-5.31,-5.3106,-5.3087,-5.3119,-5.3186,-5.3193,-5.3115,-5.3114,-5.3113,0,-5.2399,-5.25,-5.2569,-5.26,-5.2682,-5.2714,-5.275,-5.2808,-5.2846,-5.2903,-5.2928,-5.2991,-5.3025,-5.3074,-5.3112,-5.3098,-5.3195,-5.3183,-5.3214,-5.3213,-5.3231,-5.3229,-5.3302,-5.3255,-5.3255,-5.3255,-5.3255,0,-5.2456,-5.2512,-5.2578,-5.262,-5.2684,-5.2727,-5.2788,-5.2826,-5.2878,-5.2927,-5.2954,-5.3,-5.3049,-5.3102,-5.3133,-5.3199,-5.3215,-5.3234,-5.3241,-5.323,-5.3227,-5.325,-5.3246,-5.3257,-5.3257,-5.3256,-5.3256,0,-5.2484,-5.253,-5.2608,-5.2681,-5.27,-5.2744,-5.2806,-5.2848,-5.2885,-5.2947,-5.2964,-5.3021,-5.3085,-5.3129,-5.321,-5.3231,-5.3302,-5.3309,-5.3282,-5.3285,-5.3313,-5.3309,-5.34,-5.3414,-5.336,-5.3361,-5.3361,0,-5.2517,-5.2561,-5.2639,-5.2675,-5.2711,-5.2768,-5.2808,-5.2852,-5.2892,-5.2964,-5.2997,-5.3063,-5.3117,-5.3217,-5.3265,-5.3327,-5.3335,-5.3363,-5.3345,-5.3333,-5.3334,-5.333,-5.3334,-5.3365,-5.3365,-5.3366,-5.3366,0,-5.2569,-5.259,-5.2647,-5.2712,-5.2759,-5.2812,-5.2865,-5.2893,-5.2947,-5.299,-5.3056,-5.3098,-5.3182,-5.3246,-5.3314,-5.335,-5.3367,-5.3372,-5.3382,-5.3371,-5.3352,-5.3361,-5.3287,-5.3369,-5.3369,-5.3368,-5.3368,-5.3368,-5.26,-5.264,-5.2701,-5.2764,-5.2809,-5.2859,-5.2902,-5.2944,-5.3,-5.3072,-5.3095,-5.3163,-5.3222,-5.3314,-5.3352,-5.3405,-5.3403,-5.3418,-5.3422,-5.3424,-5.3423,-5.3346,-5.3418,-5.3418,-5.3418,-5.3418,-5.3418,0,-5.2652,-5.2694,-5.2751,-5.2825,-5.2874,-5.2888,-5.2948,-5.2988,-5.3047,-5.3102,-5.3155,-5.3231,-5.3294,-5.3348,-5.3413,-5.3445,-5.3454,-5.3461,-5.3457,-5.3465,-5.3422,-5.3406,-5.3452,-5.3452,-5.3452,-5.3452,-5.3452,-5.3452,-5.2685,-5.2754,-5.2783,-5.2874,-5.2915,-5.2983,-5.3016,-5.3061,-5.3105,-5.3188,-5.3241,-5.3277,-5.3331,-5.3401,-5.3459,-5.3473,-5.3495,-5.3499,-5.3515,-5.3473,-5.3469,-5.3465,-5.345,-5.3504,-5.3504,-5.3554,-5.3554,-5.3554]},{"header":{"parameterUnit":"m.s-1","parameterCategory":1,"la1":30.2991,"la2":30.254,"lo1":-89.0895,"lo2":-89.0444,"dy":0.0017,"dx":0.0017,"nx":28,"ny":28,"refTime":"2025-11-28T03:00:00:Z","depth":0,"parameterNumber":3,"parameterNumberName":"V-component_of_WINDS"},"data":[0,0,0,0,0,0,0,0,0,0,0,0,0,0,0,0,0,0,0,0,0,0,0,0,0,0,0,0,0,0,0,0,0,0,0,0,0,0,0,0,0,0,0,0,0,0,0,0,0,0,0,0,0,0,0,0,0,0,5.5639,5.5639,0,5.5636,5.5636,5.5636,5.558,5.5579,5.5577,5.5576,5.5572,5.5573,5.5574,0,0,0,0,0,0,0,0,0,0,0,0,0,5.5598,5.5599,5.5639,5.5639,5.5639,5.5636,5.5636,5.5636,5.558,5.5579,5.5577,5.5575,5.5572,5.5573,5.5574,0,0,0,0,0,0,0,0,0,0,0,0,0,5.5607,5.5599,5.5639,5.5611,5.5608,5.5636,5.5636,5.5636,5.5581,5.5579,5.5576,5.5575,5.5571,5.5573,5.5575,5.5628,0,0,5.558,5.5581,0,0,0,0,0,0,0,0,5.5607,5.5609,5.5615,5.5613,5.561,5.5606,5.562,5.5633,5.5581,5.5591,5.5576,5.5573,5.5585,5.5586,5.559,5.5628,5.5628,5.558,5.5582,5.5582,5.5583,0,0,0,0,0,0,0,5.5606,5.5609,5.5637,5.5615,5.5612,5.5599,5.5598,5.5622,5.56,5.559,5.5586,5.5587,5.5583,5.5588,5.5589,5.5628,5.558,5.5582,5.5583,5.5584,5.5711,5.5713,0,0,0,0,0,0,5.5609,5.5609,5.5638,5.5637,5.5603,5.5601,5.56,5.5609,5.56,5.5596,5.5588,5.5584,5.5586,5.5587,5.5589,5.565,5.5582,5.5584,5.5585,5.5709,5.5712,5.5714,0,0,0,0,0,0,5.5609,5.5613,5.5638,5.5622,5.5624,5.5604,5.5615,5.5611,5.5615,5.5598,5.5594,5.5597,5.5584,5.5586,5.5619,5.5649,5.5585,5.5586,5.5706,5.571,5.5713,5.5774,0,0,0,0,0,0,5.5608,5.5613,5.5632,5.5623,5.5625,5.5668,5.5617,5.5612,5.5618,5.5613,5.5605,5.5602,5.5583,5.5617,5.5621,5.5651,5.5588,5.5703,5.5708,5.5712,5.5769,5.5779,5.5788,0,0,0,0,0,5.5607,5.5649,5.5633,5.5637,5.5649,5.567,5.5671,5.5648,5.5621,5.5641,5.5631,5.5602,5.5646,5.5621,5.5625,5.5655,5.5701,5.5707,5.5712,5.5765,5.5777,5.5787,0,0,0,0,0,0,5.5661,5.5647,5.563,5.567,5.5672,5.566,5.5684,5.5662,5.567,5.5664,5.5636,5.5635,5.5672,5.5668,5.5639,5.5707,5.5669,5.5675,5.5708,5.5719,5.5729,5.5727,5.5589,0,0,0,0,0,5.5679,5.5696,5.5683,5.572,5.5722,5.5704,5.5711,5.5694,5.5694,5.5694,5.5686,5.5687,5.5701,5.5711,5.5723,5.577,5.5767,5.5793,5.5803,5.581,5.5815,5.5839,5.5851,5.5731,5.5731,5.5731,0,0,5.5713,5.5708,5.572,5.5731,5.573,5.5749,5.5704,5.5726,5.5739,5.5697,5.5727,5.5722,5.5722,5.5762,5.5779,5.5759,5.5848,5.5817,5.5823,5.5823,5.5846,5.5857,5.5867,5.5735,5.5734,5.5733,0,0,5.5785,5.5784,5.5815,5.5815,5.5815,5.5803,5.5811,5.5803,5.5798,5.5829,5.5798,5.5815,5.5839,5.584,5.5844,5.5921,5.5895,5.5926,5.5973,5.5997,5.6007,5.6015,5.6041,5.6051,5.5932,5.5932,5.5932,0,5.5828,5.5855,5.5833,5.5857,5.5863,5.5828,5.5859,5.5861,5.5865,5.5869,5.5848,5.5879,5.5877,5.5916,5.5936,5.5941,5.5948,5.5925,5.6007,5.6015,5.6022,5.6047,5.6057,5.5936,5.5935,5.5935,5.5934,0,5.5908,5.5928,5.5953,5.5958,5.5967,5.5995,5.5977,5.5989,5.5973,5.5963,5.5995,5.5992,5.6002,5.6011,5.5995,5.6049,5.6037,5.6012,5.5972,5.6038,5.606,5.6069,5.5941,5.5939,5.5938,5.5937,0,0,5.6009,5.6005,5.6014,5.6017,5.6016,5.603,5.6058,5.6069,5.608,5.6085,5.6106,5.613,5.6107,5.6112,5.6096,5.6118,5.6178,5.609,5.609,5.6104,5.6237,5.6253,5.6264,5.6163,5.6164,5.6166,5.6236,0,5.6078,5.6123,5.6105,5.6152,5.617,5.6139,5.6163,5.6165,5.6158,5.6173,5.6165,5.6182,5.6152,5.6154,5.6175,5.6166,5.6203,5.6161,5.6181,5.6182,5.6178,5.6276,5.6294,5.636,5.6245,5.6246,5.6247,0,5.6162,5.6171,5.622,5.6218,5.6224,5.6246,5.6256,5.6271,5.6273,5.6267,5.6274,5.6254,5.628,5.6244,5.628,5.6252,5.626,5.6257,5.6259,5.6257,5.6216,5.6275,5.638,5.6389,5.6261,5.626,5.6259,0,5.6229,5.6255,5.6287,5.629,5.6289,5.6304,5.6304,5.6305,5.6314,5.6323,5.6328,5.6341,5.6347,5.6357,5.6341,5.6317,5.638,5.6342,5.6374,5.6374,5.6385,5.6384,5.6491,5.6396,5.6395,5.6395,5.6395,0,5.6305,5.6336,5.6317,5.6337,5.6371,5.6352,5.6386,5.6382,5.6384,5.6402,5.6378,5.6396,5.6375,5.6392,5.638,5.6411,5.6415,5.641,5.6405,5.641,5.641,5.6412,5.6406,5.6398,5.6397,5.6397,5.6396,0,5.6384,5.6373,5.6406,5.6403,5.6403,5.6428,5.6425,5.6443,5.6437,5.646,5.6465,5.6454,5.6472,5.6458,5.6476,5.6468,5.6509,5.65,5.6508,5.6504,5.6536,5.6532,5.6645,5.6658,5.6557,5.6558,5.6559,0,5.6431,5.6454,5.6455,5.6466,5.6468,5.6486,5.6495,5.6479,5.6489,5.6496,5.6513,5.653,5.6541,5.6572,5.6565,5.6579,5.6568,5.6607,5.657,5.6574,5.6566,5.6564,5.6566,5.6613,5.6614,5.6615,5.6616,0,5.6517,5.6511,5.6525,5.6539,5.6551,5.6561,5.6568,5.6579,5.6563,5.6576,5.6595,5.6604,5.6623,5.6639,5.6651,5.6651,5.6631,5.6629,5.6636,5.664,5.6643,5.664,5.6525,5.6625,5.6624,5.6624,5.6623,5.6623,5.658,5.6599,5.6603,5.662,5.6625,5.6633,5.665,5.6647,5.6662,5.6676,5.6667,5.6689,5.6693,5.6707,5.671,5.6727,5.671,5.6722,5.6724,5.6727,5.6731,5.6643,5.6729,5.6729,5.6728,5.6728,5.6728,0,5.6662,5.6664,5.668,5.6693,5.6707,5.6689,5.6697,5.671,5.673,5.6736,5.6749,5.6771,5.6787,5.6783,5.6798,5.6813,5.6804,5.6817,5.6814,5.6814,5.6745,5.6736,5.6824,5.6824,5.6824,5.6824,5.6824,5.6824,5.6706,5.6738,5.6733,5.6767,5.6769,5.6791,5.6797,5.6805,5.681,5.6836,5.685,5.6847,5.6849,5.6865,5.6879,5.6877,5.6883,5.6899,5.6894,5.6829,5.6819,5.681,5.6801,5.6901,5.6901,5.6961,5.6962,5.6962]}]]